OAS8412 SKBO-SKRH

Flight info

Callsign OAS8412
Flight time 1h 2m
Altitude 36000
Route OSUS4R GIKPU UQ120 DIBAM DCT VUP VUP1S
Aircraft A320/M-SDE3FGHIRWY/LB1

Departure

Time 2026-05-04 22:28
Airport El Dorado International Airport (SKBO)

Arrival

Time 2026-05-04 23:31
Airport Almirante Padilla Airport (SKRH)
Time Latitude Longitude Altitude Speed Heading
2026-05-04 22:03 4.69877 -74.14451 8366 ft 0 kts 226°
2026-05-04 22:16 4.69891 -74.14437 8366 ft 4 kts 227°
2026-05-04 22:17 4.69906 -74.14420 8366 ft 4 kts 231°
2026-05-04 22:17 4.69919 -74.14398 8366 ft 4 kts 263°
2026-05-04 22:17 4.69915 -74.14373 8366 ft 4 kts 302°
2026-05-04 22:17 4.69901 -74.14354 8366 ft 1 kts 307°
2026-05-04 22:18 4.69914 -74.14370 8366 ft 4 kts 307°
2026-05-04 22:18 4.69930 -74.14392 8366 ft 4 kts 307°
2026-05-04 22:18 4.69938 -74.14403 8366 ft 0 kts 307°
2026-05-04 22:20 4.69939 -74.14403 8366 ft 1 kts 307°
2026-05-04 22:20 4.69956 -74.14426 8366 ft 7 kts 307°
2026-05-04 22:20 4.69993 -74.14475 8366 ft 10 kts 307°
2026-05-04 22:21 4.70035 -74.14530 8366 ft 10 kts 307°
2026-05-04 22:21 4.70101 -74.14553 8366 ft 11 kts
2026-05-04 22:21 4.70169 -74.14585 8366 ft 12 kts 358°
2026-05-04 22:21 4.70243 -74.14540 8366 ft 13 kts 37°
2026-05-04 22:22 4.70316 -74.14485 8366 ft 13 kts 37°
2026-05-04 22:22 4.70392 -74.14427 8366 ft 14 kts 37°
2026-05-04 22:22 4.70478 -74.14400 8366 ft 13 kts 329°
2026-05-04 22:22 4.70538 -74.14474 8366 ft 14 kts 307°
2026-05-04 22:23 4.70601 -74.14556 8367 ft 15 kts 307°
2026-05-04 22:23 4.70666 -74.14641 8367 ft 15 kts 308°
2026-05-04 22:23 4.70731 -74.14729 8366 ft 16 kts 307°
2026-05-04 22:23 4.70799 -74.14819 8366 ft 17 kts 307°
2026-05-04 22:24 4.70877 -74.14919 8366 ft 19 kts 309°
2026-05-04 22:24 4.70950 -74.15019 8366 ft 15 kts 307°
2026-05-04 22:24 4.70995 -74.15079 8366 ft 10 kts 307°
2026-05-04 22:24 4.71033 -74.15131 8367 ft 8 kts 307°
2026-05-04 22:25 4.71062 -74.15170 8366 ft 6 kts 307°
2026-05-04 22:25 4.71085 -74.15199 8366 ft 6 kts 307°
2026-05-04 22:25 4.71118 -74.15243 8367 ft 10 kts 307°
2026-05-04 22:25 4.71158 -74.15284 8366 ft 7 kts 328°
2026-05-04 22:26 4.71217 -74.15294 8366 ft 6 kts 10°
2026-05-04 22:26 4.71223 -74.15292 8366 ft 0 kts 18°
2026-05-04 22:26 4.71230 -74.15289 8367 ft 2 kts 27°
2026-05-04 22:26 4.71259 -74.15263 8366 ft 8 kts 44°
2026-05-04 22:27 4.71286 -74.15235 8366 ft 9 kts 46°
2026-05-04 22:27 4.71308 -74.15174 8365 ft 13 kts 105°
2026-05-04 22:27 4.71183 -74.14998 8364 ft 62 kts 128°
2026-05-04 22:27 4.70787 -74.14475 8368 ft 124 kts 128°
2026-05-04 22:28 4.70161 -74.13645 8367 ft 173 kts 127°
2026-05-04 22:28 4.69404 -74.12627 8947 ft 177 kts 127°
2026-05-04 22:28 4.68714 -74.11615 9650 ft 180 kts 110°
2026-05-04 22:28 4.68759 -74.10338 9790 ft 199 kts 62°
2026-05-04 22:29 4.69802 -74.09366 9927 ft 220 kts 24°
2026-05-04 22:29 4.71318 -74.08866 10106 ft 237 kts 19°
2026-05-04 22:29 4.72914 -74.08363 10493 ft 244 kts 19°
2026-05-04 22:29 4.74538 -74.07844 11111 ft 245 kts 20°
2026-05-04 22:30 4.76168 -74.07316 11724 ft 247 kts 20°
2026-05-04 22:30 4.77815 -74.06777 12294 ft 250 kts 21°
2026-05-04 22:30 4.79472 -74.06227 12889 ft 252 kts 21°
2026-05-04 22:30 4.81180 -74.05651 13160 ft 271 kts 21°
2026-05-04 22:31 4.83044 -74.05018 13293 ft 293 kts 21°
2026-05-04 22:31 4.85046 -74.04340 13424 ft 315 kts 21°
2026-05-04 22:31 4.87190 -74.03615 13551 ft 335 kts 21°
2026-05-04 22:31 4.89466 -74.02844 13681 ft 354 kts 21°
2026-05-04 22:32 4.91860 -74.02033 13801 ft 372 kts 21°
2026-05-04 22:32 4.94361 -74.01186 14022 ft 385 kts 20°
2026-05-04 22:32 4.96921 -74.00321 14431 ft 390 kts 21°
2026-05-04 22:32 4.99498 -73.99450 14900 ft 393 kts 21°
2026-05-04 22:33 5.02102 -73.98579 15368 ft 396 kts 20°
2026-05-04 22:33 5.04758 -73.97800 15828 ft 399 kts 18°
2026-05-04 22:33 5.07457 -73.97111 16268 ft 402 kts 16°
2026-05-04 22:33 5.10195 -73.96466 16721 ft 405 kts 15°
2026-05-04 22:34 5.12945 -73.95834 17138 ft 407 kts 15°
2026-05-04 22:34 5.15715 -73.95191 17547 ft 409 kts 16°
2026-05-04 22:34 5.18491 -73.94530 17982 ft 412 kts 16°
2026-05-04 22:34 5.21286 -73.93845 18420 ft 414 kts 17°
2026-05-04 22:35 5.24097 -73.93142 18746 ft 417 kts 16°
2026-05-04 22:35 5.26916 -73.92430 19095 ft 419 kts 17°
2026-05-04 22:35 5.29750 -73.91714 19457 ft 422 kts 17°
2026-05-04 22:35 5.32605 -73.90995 19812 ft 424 kts 17°
2026-05-04 22:36 5.35472 -73.90276 20158 ft 426 kts 16°
2026-05-04 22:36 5.38359 -73.89556 20492 ft 428 kts 16°
2026-05-04 22:36 5.41253 -73.88838 20806 ft 430 kts 16°
2026-05-04 22:36 5.44176 -73.88112 21119 ft 433 kts 16°
2026-05-04 22:37 5.47107 -73.87381 21432 ft 435 kts 16°
2026-05-04 22:37 5.50054 -73.86647 21736 ft 438 kts 16°
2026-05-04 22:37 5.53018 -73.85911 22058 ft 440 kts 15°
2026-05-04 22:37 5.56001 -73.85209 22351 ft 443 kts 14°
2026-05-04 22:38 5.59024 -73.84566 22645 ft 445 kts 13°
2026-05-04 22:38 5.62064 -73.83960 22938 ft 447 kts 13°
2026-05-04 22:38 5.65127 -73.83364 23223 ft 450 kts 12°
2026-05-04 22:38 5.68186 -73.82767 23494 ft 452 kts 13°
2026-05-04 22:39 5.71281 -73.82152 23761 ft 454 kts 13°
2026-05-04 22:39 5.74385 -73.81522 23987 ft 456 kts 13°
2026-05-04 22:39 5.77497 -73.80878 24214 ft 457 kts 13°
2026-05-04 22:39 5.80616 -73.80226 24432 ft 459 kts 13°
2026-05-04 22:40 5.83747 -73.79575 24662 ft 460 kts 13°
2026-05-04 22:40 5.86886 -73.78927 24882 ft 462 kts 13°
2026-05-04 22:40 5.90043 -73.78276 25107 ft 464 kts 13°
2026-05-04 22:40 5.93206 -73.77624 25321 ft 465 kts 13°
2026-05-04 22:41 5.96383 -73.76970 25541 ft 467 kts 13°
2026-05-04 22:41 5.99569 -73.76315 25756 ft 468 kts 13°
2026-05-04 22:41 6.02769 -73.75658 25953 ft 470 kts 13°
2026-05-04 22:41 6.05968 -73.75000 26153 ft 471 kts 12°
2026-05-04 22:42 6.09194 -73.74336 26336 ft 473 kts 13°
2026-05-04 22:42 6.12421 -73.73670 26523 ft 474 kts 12°
2026-05-04 22:42 6.15660 -73.73001 26725 ft 476 kts 12°
2026-05-04 22:42 6.18907 -73.72330 26906 ft 477 kts 12°
2026-05-04 22:43 6.22163 -73.71656 27092 ft 479 kts 12°
2026-05-04 22:43 6.25428 -73.70983 27273 ft 480 kts 12°
2026-05-04 22:43 6.28710 -73.70307 27460 ft 482 kts 12°
2026-05-04 22:43 6.32002 -73.69631 27667 ft 483 kts 12°
2026-05-04 22:44 6.34180 -73.69182 27841 ft 482 kts 12°
2026-05-04 22:44 6.37456 -73.68508 28120 ft 481 kts 12°
2026-05-04 22:44 6.40736 -73.67831 28399 ft 481 kts 12°
2026-05-04 22:44 6.44016 -73.67153 28671 ft 481 kts 12°
2026-05-04 22:45 6.47284 -73.66476 28937 ft 480 kts 12°
2026-05-04 22:45 6.53827 -73.65124 29495 ft 480 kts 12°
2026-05-04 22:45 6.57100 -73.64449 29779 ft 479 kts 12°
2026-05-04 22:46 6.60361 -73.63779 30039 ft 479 kts 12°
2026-05-04 22:46 6.63629 -73.63106 30282 ft 478 kts 12°
2026-05-04 22:46 6.66885 -73.62437 30536 ft 478 kts 12°
2026-05-04 22:46 6.70138 -73.61769 30806 ft 477 kts 12°
2026-05-04 22:47 6.73389 -73.61101 31066 ft 476 kts 12°
2026-05-04 22:47 6.76626 -73.60432 31319 ft 475 kts 12°
2026-05-04 22:47 6.79854 -73.59762 31573 ft 474 kts 12°
2026-05-04 22:47 6.83071 -73.59095 31826 ft 473 kts 12°
2026-05-04 22:48 6.86295 -73.58431 32086 ft 472 kts 12°
2026-05-04 22:48 6.89510 -73.57772 32338 ft 471 kts 12°
2026-05-04 22:48 6.92726 -73.57110 32608 ft 470 kts 12°
2026-05-04 22:48 6.95927 -73.56464 32874 ft 470 kts 10°
2026-05-04 22:49 6.99178 -73.56162 33147 ft 470 kts
2026-05-04 22:49 7.02443 -73.56280 33412 ft 469 kts 358°
2026-05-04 22:49 7.05699 -73.56442 33692 ft 468 kts 358°
2026-05-04 22:49 7.08948 -73.56599 33956 ft 467 kts 358°
2026-05-04 22:50 7.12191 -73.56754 34200 ft 466 kts 358°
2026-05-04 22:50 7.15432 -73.56909 34432 ft 466 kts 358°
2026-05-04 22:50 7.18665 -73.57064 34667 ft 465 kts 358°
2026-05-04 22:50 7.21891 -73.57215 34896 ft 464 kts 358°
2026-05-04 22:51 7.25117 -73.57367 35125 ft 463 kts 358°
2026-05-04 22:51 7.28336 -73.57518 35328 ft 463 kts 358°
2026-05-04 22:51 7.31549 -73.57668 35534 ft 462 kts 358°
2026-05-04 22:51 7.34760 -73.57817 35729 ft 462 kts 358°
2026-05-04 22:52 7.37975 -73.57968 35843 ft 463 kts 358°
2026-05-04 22:52 7.41203 -73.58122 35869 ft 467 kts 358°
2026-05-04 22:52 7.47750 -73.58445 35868 ft 475 kts 358°
2026-05-04 22:53 7.54405 -73.58768 35863 ft 482 kts 358°
2026-05-04 22:53 7.61115 -73.59080 35864 ft 483 kts 357°
2026-05-04 22:54 7.67836 -73.59402 35865 ft 483 kts 357°
2026-05-04 22:54 7.74560 -73.59728 35867 ft 483 kts 357°
2026-05-04 22:55 7.81279 -73.60048 35868 ft 484 kts 357°
2026-05-04 22:55 7.87998 -73.60378 35866 ft 484 kts 357°
2026-05-04 22:56 7.94730 -73.60705 35869 ft 484 kts 357°
2026-05-04 22:56 8.01458 -73.61022 35870 ft 484 kts 357°
2026-05-04 22:57 8.08188 -73.61340 35873 ft 485 kts 357°
2026-05-04 22:57 8.14933 -73.61664 35877 ft 485 kts 357°
2026-05-04 22:58 8.21619 -73.61569 35885 ft 485 kts
2026-05-04 22:58 8.28278 -73.60484 35885 ft 485 kts
2026-05-04 22:59 8.34940 -73.59397 35886 ft 485 kts
2026-05-04 22:59 8.41597 -73.58306 35891 ft 485 kts
2026-05-04 23:00 8.48266 -73.57211 35894 ft 485 kts
2026-05-04 23:00 8.54929 -73.56108 35892 ft 485 kts
2026-05-04 23:01 8.61595 -73.55012 35900 ft 486 kts
2026-05-04 23:01 8.68273 -73.53921 35909 ft 486 kts
2026-05-04 23:02 8.74947 -73.52832 35911 ft 486 kts
2026-05-04 23:02 8.81616 -73.51743 35913 ft 486 kts
2026-05-04 23:03 8.88293 -73.50650 35912 ft 486 kts
2026-05-04 23:03 8.94971 -73.49554 35911 ft 486 kts
2026-05-04 23:04 9.01684 -73.48452 35916 ft 486 kts
2026-05-04 23:04 9.08310 -73.47363 35911 ft 486 kts
2026-05-04 23:05 9.14980 -73.46267 35910 ft 486 kts
2026-05-04 23:05 9.21641 -73.45171 35911 ft 486 kts
2026-05-04 23:06 9.28313 -73.44079 35893 ft 485 kts
2026-05-04 23:06 9.34978 -73.42983 35888 ft 485 kts
2026-05-04 23:07 9.41633 -73.41893 35885 ft 484 kts
2026-05-04 23:07 9.48288 -73.40801 35882 ft 484 kts
2026-05-04 23:08 9.54926 -73.39707 35883 ft 484 kts
2026-05-04 23:08 9.61573 -73.38610 35890 ft 484 kts
2026-05-04 23:09 9.68216 -73.37511 35895 ft 484 kts
2026-05-04 23:09 9.74871 -73.36416 35897 ft 484 kts
2026-05-04 23:10 9.81519 -73.35324 35901 ft 484 kts
2026-05-04 23:10 9.88159 -73.34225 35879 ft 477 kts
2026-05-04 23:11 9.94592 -73.33161 35886 ft 465 kts
2026-05-04 23:11 10.00976 -73.32110 35890 ft 464 kts
2026-05-04 23:12 10.07357 -73.31058 35569 ft 464 kts
2026-05-04 23:12 10.10539 -73.30532 35340 ft 464 kts
2026-05-04 23:12 10.13728 -73.30005 35105 ft 464 kts
2026-05-04 23:13 10.16920 -73.29476 34874 ft 465 kts
2026-05-04 23:13 10.20115 -73.28947 34650 ft 465 kts
2026-05-04 23:13 10.23305 -73.28420 34426 ft 466 kts
2026-05-04 23:13 10.26517 -73.27890 33841 ft 469 kts
2026-05-04 23:14 10.29766 -73.27353 32772 ft 476 kts
2026-05-04 23:14 10.33045 -73.26809 31838 ft 480 kts
2026-05-04 23:14 10.36360 -73.26259 30815 ft 486 kts
2026-05-04 23:14 10.39718 -73.25704 29767 ft 491 kts
2026-05-04 23:15 10.43115 -73.25140 28556 ft 497 kts
2026-05-04 23:15 10.46473 -73.24274 27430 ft 501 kts 17°
2026-05-04 23:15 10.49799 -73.23181 26389 ft 502 kts 17°
2026-05-04 23:15 10.53119 -73.22092 25350 ft 503 kts 17°
2026-05-04 23:16 10.56440 -73.21004 24296 ft 495 kts 18°
2026-05-04 23:16 10.59689 -73.19939 22863 ft 488 kts 18°
2026-05-04 23:16 10.62895 -73.18889 21636 ft 481 kts 18°
2026-05-04 23:16 10.66065 -73.17852 20833 ft 476 kts 19°
2026-05-04 23:17 10.69210 -73.16822 20000 ft 474 kts 19°
2026-05-04 23:17 10.72333 -73.15800 19326 ft 467 kts 19°
2026-05-04 23:17 10.75390 -73.14799 18356 ft 455 kts 19°
2026-05-04 23:17 10.78344 -73.13834 17626 ft 441 kts 20°
2026-05-04 23:18 10.81255 -73.12883 16974 ft 437 kts 20°
2026-05-04 23:18 10.84143 -73.11938 16220 ft 435 kts 19°
2026-05-04 23:18 10.87014 -73.10998 15545 ft 433 kts 20°
2026-05-04 23:18 10.89868 -73.10061 14861 ft 430 kts 20°
2026-05-04 23:19 10.92717 -73.09138 14185 ft 428 kts 19°
2026-05-04 23:19 10.95564 -73.08273 13497 ft 426 kts 18°
2026-05-04 23:19 10.98406 -73.07453 12821 ft 422 kts 17°
2026-05-04 23:19 11.01265 -73.06819 12167 ft 419 kts
2026-05-04 23:20 11.04165 -73.06807 11518 ft 417 kts 355°
2026-05-04 23:20 11.06977 -73.07427 11190 ft 407 kts 342°
2026-05-04 23:20 11.09511 -73.08537 11053 ft 383 kts 334°
2026-05-04 23:20 11.11803 -73.09695 10934 ft 355 kts 334°
2026-05-04 23:21 11.13937 -73.10769 10813 ft 331 kts 335°
2026-05-04 23:21 11.15952 -73.11782 10473 ft 318 kts 334°
2026-05-04 23:21 11.17521 -73.12578 10228 ft 320 kts 334°
2026-05-04 23:22 11.19489 -73.13579 10019 ft 314 kts 334°
2026-05-04 23:22 11.21430 -73.14563 9910 ft 311 kts 334°
2026-05-04 23:22 11.23369 -73.15544 9791 ft 311 kts 334°
2026-05-04 23:22 11.25303 -73.16520 9661 ft 310 kts 334°
2026-05-04 23:23 11.27253 -73.17505 9203 ft 313 kts 334°
2026-05-04 23:23 11.29184 -73.18483 8807 ft 306 kts 334°
2026-05-04 23:23 11.31087 -73.19450 8179 ft 304 kts 334°
2026-05-04 23:23 11.32972 -73.20411 7573 ft 301 kts 334°
2026-05-04 23:24 11.34826 -73.21355 6978 ft 297 kts 334°
2026-05-04 23:24 11.36678 -73.22256 6422 ft 293 kts 341°
2026-05-04 23:24 11.38653 -73.22609 5862 ft 286 kts
2026-05-04 23:24 11.40582 -73.22240 5339 ft 283 kts 23°
2026-05-04 23:25 11.42259 -73.21215 4887 ft 280 kts 42°
2026-05-04 23:25 11.43746 -73.19919 4406 ft 282 kts 43°
2026-05-04 23:25 11.45155 -73.18577 4078 ft 276 kts 51°
2026-05-04 23:25 11.46359 -73.17121 3826 ft 258 kts 52°
2026-05-04 23:26 11.47107 -73.16222 3747 ft 244 kts 52°
2026-05-04 23:26 11.48523 -73.14522 3602 ft 231 kts 51°
2026-05-04 23:26 11.49212 -73.13695 3528 ft 231 kts 52°
2026-05-04 23:26 11.50245 -73.12451 3416 ft 229 kts 52°
2026-05-04 23:27 11.51274 -73.11210 3321 ft 229 kts 53°
2026-05-04 23:27 11.52023 -73.09811 3215 ft 224 kts 76°
2026-05-04 23:27 11.52177 -73.08250 2886 ft 219 kts 89°
2026-05-04 23:27 11.52212 -73.06731 2596 ft 210 kts 89°
2026-05-04 23:28 11.52252 -73.05271 2316 ft 202 kts 89°
2026-05-04 23:28 11.52292 -73.03867 2045 ft 195 kts 89°
2026-05-04 23:28 11.52332 -73.02488 1784 ft 193 kts 90°
2026-05-04 23:28 11.52371 -73.01147 1543 ft 186 kts 90°
2026-05-04 23:29 11.52407 -72.99876 1300 ft 172 kts 89°
2026-05-04 23:29 11.52441 -72.98732 1077 ft 152 kts 88°
2026-05-04 23:29 11.52470 -72.97704 894 ft 142 kts 88°
2026-05-04 23:29 11.52498 -72.96694 716 ft 142 kts 84°
2026-05-04 23:30 11.52527 -72.95701 526 ft 141 kts 85°
2026-05-04 23:30 11.52547 -72.94705 296 ft 141 kts 87°
2026-05-04 23:30 11.52583 -72.93718 124 ft 140 kts 86°
2026-05-04 23:30 11.52619 -72.92776 51 ft 120 kts 89°
2026-05-04 23:31 11.52630 -72.92234 52 ft 33 kts 88°
2026-05-04 23:31 11.52635 -72.92063 53 ft 23 kts 88°
2026-05-04 23:31 11.52637 -72.91961 53 ft 13 kts 88°
2026-05-04 23:31 11.52653 -72.91901 52 ft 6 kts 36°
2026-05-04 23:32 11.52696 -72.91902 52 ft 7 kts 358°
2026-05-04 23:32 11.52744 -72.91904 49 ft 7 kts 357°
2026-05-04 23:32 11.52791 -72.91906 52 ft 7 kts 358°
2026-05-04 23:32 11.52795 -72.91906 52 ft 1 kts 358°
2026-05-04 23:33 11.52796 -72.91906 52 ft 0 kts 358°